User: anonymous   Login
Location: Unspecified
(0.0000°N, 0.0000°E)
Time: 03:49:25
(UTC+00:00)
Language:

SHIYUAN 3 (SY-3) - Orbit

View from above orbital plane
View from above orbital plane
View from above satellite
View from above satellite

Ground track
Ground track

The orbit data is extracted from the following two-line orbital elements,

1 33433U 08056A   18292.72193608  .00000006  00000-0  19619-4 0  9999
2 33433  98.6696 285.1556 0014774  58.6134 301.6487 14.29707185519372
Epoch (UTC): 19 October 2018 17:19:35
Eccentricity: 0.0014774
inclination: 98.6696°
perigee height: 782 km
apogee height: 803 km
right ascension of ascending node: 285.1556°
argument of perigee: 58.6134°
revolutions per day: 14.29707185
mean anomaly at epoch: 301.6487°
orbit number at epoch: 51937

The dashed part of the orbit path shows where the satellite is in the earth's shadow,  

DLR